Location: Unspecified
(0.0000°N, 0.0000°E)
Time: 19:59:32
(UTC+00:00)

Envisat - Visible Passes

Search period start: 09 December 2018 00:00
Search period end: 19 December 2018 00:00
Orbit: 764 x 766 km, 98.2° (Epoch: 09 December)

Date Brightness Start Highest point End Pass type
(mag) Time Alt. Az. Time Alt. Az. Time Alt. Az.
09 Dec 3.4 18:49:29 10° SE 18:54:10 38° ENE 18:58:50 10° N visible
09 Dec 6.0 20:30:58 10° SW 20:32:54 12° WSW 20:34:49 10° W visible
10 Dec 4.6 18:15:10 10° ESE 18:17:32 13° ENE 18:19:55 10° NE visible
10 Dec 4.5 19:51:42 10° SSW 19:56:17 35° WSW 20:00:52 10° NW visible
11 Dec 2.9 19:14:33 10° SSE 19:19:39 81° ENE 19:24:42 10° N visible
12 Dec 3.8 18:38:42 10° SE 18:43:00 28° ENE 18:47:17 10° NNE visible
12 Dec 5.6 20:18:33 10° SW 20:21:44 17° WSW 20:24:55 10° WNW visible
13 Dec 3.9 19:40:15 10° S 19:45:07 47° WSW 19:49:59 10° NNW visible
14 Dec 3.0 19:03:29 10° SSE 19:08:29 59° ENE 19:13:26 10° N visible
15 Dec 4.2 18:28:07 10° SE 18:31:50 21° ENE 18:35:33 10° NNE visible
15 Dec 5.2 20:06:39 10° SSW 20:10:35 23° WSW 20:14:31 10° NW visible
16 Dec 3.3 19:28:55 10° S 19:33:57 66° WSW 19:38:58 10° NNW visible
17 Dec 3.3 18:52:31 10° SSE 18:57:19 43° ENE 19:02:05 10° N visible
17 Dec 6.1 20:35:08 10° WSW 20:36:02 10° WSW 20:36:56 10° W visible
18 Dec 4.5 18:17:48 10° ESE 18:20:41 15° ENE 18:23:32 10° NE visible
18 Dec 4.7 19:54:59 10° SSW 19:59:26 31° WSW 20:03:51 10° NW visible
